Crestview, FL

4:39 PM CDT on June 23, 2017 (GMT -0500)
Sikes

Weather History for KCEW - January, 2013

Change the Weather History Date:

Tuesday, January 1, 2013

  Actual Average Record
Temperature  
Mean Temperature 63 °F -  
Max Temperature 75 °F 60 °F 78 °F (1952)
Min Temperature 51 °F 40 °F 21 °F (1998)
Degree Days  
Heating Degree Days 2    
Growing Degree Days 13 (Base 50)    
Moisture  
Dew Point 60 °F    
Average Humidity 84    
Maximum Humidity 100    
Minimum Humidity 60    
Precipitation  
Precipitation 0.19 in - - ()
Sea Level Pressure  
Sea Level Pressure 30.03 in    
Wind  
Wind Speed 5 mph (SSW)    
Max Wind Speed 16 mph    
Max Gust Speed 26 mph    
Visibility 6 miles    
Events Fog , Rain    
Averages and records for this station are not official NWS values.
T = Trace of Precipitation, MM = Missing Value Source: NWS Daily Summary

Daily Weather History Graph

Daily Weather History Graph

Search for Another Location

Airport or City:

Trip Planner

Search our weather history database for the weather conditions in past years. The results will help you decide how hot, cold, wet, or windy it might be!

Date:

Astronomy

Jan. 01, 2013 Rise Set
Actual Time 6:43 AM CST 4:55 PM CST
Civil Twilight 6:17 AM CST 5:22 PM CST
Nautical Twilight 5:47 AM CST 5:52 PM CST
Astronomical Twilight 5:17 AM CST 6:21 PM CST
Moon 9:07 PM CST (1/1) 9:12 AM CST (1/1)
Length of Visible Light 11h 05m
Length of Day
10h 12m
Waning Gibbous, 83% of the Moon is Illuminated
Jan 1
Waning Gibbous
Jan 4
Last Quarter
Jan 11
New
Jan 18
First Quarter
Jan 26
Full

Hourly Weather History & Observations

Time (CST) Temp. Dew Point Humidity Pressure Visibility Wind Dir Wind Speed Gust Speed Precip Events Conditions
12:03 AM 55.4 °F 51.8 °F 88% 30.15 in 10.0 mi Calm Calm - N/A   Mostly Cloudy
12:53 AM 55.9 °F 52.0 °F 87% 30.13 in 10.0 mi ESE 3.5 mph - N/A   Overcast
1:28 AM 55.4 °F 51.8 °F 88% 30.13 in 8.0 mi Calm Calm - N/A   Overcast
1:53 AM 54.0 °F 51.1 °F 90% 30.12 in 7.0 mi Calm Calm - N/A   Overcast
2:53 AM 55.9 °F 54.0 °F 93% 30.10 in 4.0 mi Calm Calm - N/A   Partly Cloudy
3:53 AM 55.0 °F 54.0 °F 96% 30.08 in 3.0 mi South 3.5 mph - N/A   Clear
3:56 AM 55.4 °F 53.6 °F 94% 30.08 in 1.8 mi South 3.5 mph - N/A   Partly Cloudy
4:03 AM 55.4 °F 53.6 °F 94% 30.08 in 0.8 mi Calm Calm - N/A   Mist
4:20 AM 55.4 °F 53.6 °F 94% 30.07 in 0.5 mi Calm Calm - N/A Fog Fog
4:53 AM 51.1 °F 48.9 °F 92% 30.06 in 0.2 mi Calm Calm - N/A Fog Fog
5:53 AM 55.0 °F 54.0 °F 96% 30.06 in 0.2 mi South 3.5 mph - N/A Fog Fog
6:42 AM 51.8 °F 51.8 °F 100% 30.07 in 0.2 mi Calm Calm - N/A Fog Fog
6:53 AM 51.1 °F 50.0 °F 96% 30.06 in 0.2 mi Calm Calm - N/A Fog Fog
7:53 AM 55.9 °F 55.0 °F 97% 30.07 in 0.2 mi Calm Calm - N/A Fog Fog
8:00 AM 57.2 °F 57.2 °F 100% 30.07 in 0.2 mi Calm Calm - N/A Fog Fog
8:12 AM 59.0 °F 57.2 °F 94% 30.07 in 1.0 mi Calm Calm - N/A   Mist
8:15 AM 60.8 °F 59.0 °F 94% 30.07 in 3.0 mi Calm Calm - N/A   Mostly Cloudy
8:23 AM 60.8 °F 59.0 °F 94% 30.07 in 7.0 mi Calm Calm - N/A   Scattered Clouds
8:53 AM 66.9 °F 61.0 °F 81% 30.08 in 10.0 mi South 4.6 mph - N/A   Clear
9:53 AM 73.0 °F 60.1 °F 64% 30.08 in 10.0 mi South 12.7 mph 26.5 mph N/A   Clear
10:53 AM 75.0 °F 60.1 °F 60% 30.06 in 10.0 mi South 16.1 mph 23.0 mph N/A   Clear
11:53 AM 73.9 °F 60.1 °F 62% 30.04 in 10.0 mi South 16.1 mph 21.9 mph N/A   Overcast
12:53 PM 73.9 °F 61.0 °F 64% 30.00 in 10.0 mi South 12.7 mph 21.9 mph N/A   Overcast
1:26 PM 73.4 °F 60.8 °F 65% 30.01 in 10.0 mi SSW 10.4 mph 23.0 mph N/A   Overcast
1:42 PM 73.4 °F 60.8 °F 65% 30.00 in 10.0 mi South 12.7 mph - N/A   Overcast
1:53 PM 73.0 °F 62.1 °F 68% 29.99 in 10.0 mi South 13.8 mph 18.4 mph N/A   Overcast
2:53 PM 73.0 °F 62.1 °F 68% 29.98 in 10.0 mi South 13.8 mph - N/A   Overcast
3:48 PM 71.6 °F 62.6 °F 73% 29.98 in 10.0 mi South 11.5 mph - 0.00 in Rain Light Rain
3:53 PM 71.1 °F 63.0 °F 75% 29.98 in 10.0 mi South 12.7 mph - 0.00 in   Overcast
4:16 PM 71.6 °F 62.6 °F 73% 29.99 in 10.0 mi South 11.5 mph - N/A   Overcast
4:39 PM 69.8 °F 62.6 °F 78% 29.99 in 10.0 mi South 10.4 mph - N/A   Overcast
5:10 PM 69.8 °F 64.4 °F 83% 29.99 in 10.0 mi SSW 11.5 mph - N/A   Overcast
5:53 PM 69.1 °F 64.0 °F 84% 29.98 in 10.0 mi South 9.2 mph - N/A   Overcast
6:25 PM 69.8 °F 64.4 °F 83% 29.98 in 10.0 mi South 11.5 mph - N/A   Overcast
6:53 PM 70.0 °F 64.9 °F 84% 29.99 in 10.0 mi South 8.1 mph - N/A   Overcast
7:53 PM 70.0 °F 66.0 °F 87% 29.99 in 9.0 mi SSW 10.4 mph - N/A   Overcast
8:03 PM 69.8 °F 66.2 °F 88% 29.99 in 9.0 mi SSW 9.2 mph - N/A   Overcast
8:41 PM 69.8 °F 66.2 °F 88% 29.98 in 9.0 mi South 10.4 mph - N/A   Overcast
8:53 PM 70.0 °F 66.0 °F 87% 29.99 in 9.0 mi SSW 10.4 mph - N/A   Overcast
9:27 PM 69.8 °F 66.2 °F 88% 29.99 in 9.0 mi SSW 9.2 mph - N/A   Overcast
9:53 PM 70.0 °F 66.0 °F 87% 29.98 in 9.0 mi SSW 9.2 mph - N/A   Overcast
10:48 PM 71.6 °F 66.2 °F 83% 29.98 in 9.0 mi SSW 9.2 mph - 0.00 in   Overcast
10:53 PM 71.1 °F 64.9 °F 81% 29.97 in 9.0 mi SSW 11.5 mph - 0.00 in   Overcast
11:16 PM 71.6 °F 66.2 °F 83% 29.98 in 8.0 mi SSW 13.8 mph - 0.00 in Rain Light Rain
11:33 PM 69.8 °F 66.2 °F 88% 29.98 in 2.0 mi SW 9.2 mph - 0.03 in Rain Rain
11:44 PM 69.8 °F 66.2 °F 88% 29.98 in 1.0 mi West 8.1 mph - 0.14 in Rain Heavy Rain
11:50 PM 69.8 °F 66.2 °F 88% 29.98 in 1.2 mi West 8.1 mph - 0.18 in Rain Heavy Rain
11:53 PM 69.1 °F 66.0 °F 90% 29.97 in 1.8 mi NW 11.5 mph - 0.19 in Rain Heavy Rain
11:57 PM 66.2 °F 64.4 °F 94% 29.98 in 3.0 mi NW 11.5 mph 17.3 mph 0.00 in Rain Rain